SAS137 LFMN-EKCH

Flight info

Callsign SAS137
Flight time 1h 55m
Altitude 38000
Route BASIP Y15 ANAKI DCT ROBAS DCT TAGIP DCT BRENO DCT KONIN DCT EXITI DCT EMBOX DCT NOBRI M726 ROSOK Q296 MONAK
Aircraft A20N/M-SDE2E3FGHIRWXY/LB1

Departure

Time 2026-05-06 06:40
Airport Nice-Côte d'Azur Airport (LFMN)

Arrival

Time 2026-05-06 08:35
Airport Copenhagen Kastrup Airport (EKCH)
Time Latitude Longitude Altitude Speed Heading
2026-05-06 06:19 43.66171 7.20676 24 ft 0 kts 261°
2026-05-06 06:31 43.66173 7.20695 24 ft 3 kts 261°
2026-05-06 06:31 43.66176 7.20721 24 ft 3 kts 261°
2026-05-06 06:31 43.66179 7.20745 24 ft 3 kts 243°
2026-05-06 06:31 43.66187 7.20766 26 ft 3 kts 229°
2026-05-06 06:32 43.66195 7.20776 28 ft 0 kts 181°
2026-05-06 06:34 43.66187 7.20777 24 ft 4 kts 174°
2026-05-06 06:34 43.66156 7.20783 26 ft 5 kts 171°
2026-05-06 06:34 43.66118 7.20792 24 ft 6 kts 171°
2026-05-06 06:34 43.66071 7.20801 24 ft 7 kts 171°
2026-05-06 06:35 43.66015 7.20813 24 ft 9 kts 172°
2026-05-06 06:35 43.65951 7.20825 24 ft 10 kts 172°
2026-05-06 06:35 43.65884 7.20797 26 ft 11 kts 215°
2026-05-06 06:35 43.65825 7.20722 24 ft 12 kts 225°
2026-05-06 06:36 43.65762 7.20636 26 ft 13 kts 225°
2026-05-06 06:36 43.65694 7.20540 26 ft 15 kts 225°
2026-05-06 06:36 43.65620 7.20436 24 ft 16 kts 226°
2026-05-06 06:36 43.65538 7.20327 25 ft 17 kts 224°
2026-05-06 06:37 43.65452 7.20210 24 ft 18 kts 225°
2026-05-06 06:37 43.65343 7.20204 26 ft 18 kts 142°
2026-05-06 06:37 43.65252 7.20327 24 ft 19 kts 135°
2026-05-06 06:37 43.65156 7.20456 25 ft 19 kts 136°
2026-05-06 06:38 43.65033 7.20500 27 ft 20 kts 197°
2026-05-06 06:38 43.64933 7.20379 29 ft 20 kts 226°
2026-05-06 06:38 43.64823 7.20270 25 ft 19 kts 176°
2026-05-06 06:38 43.64769 7.20381 26 ft 12 kts 52°
2026-05-06 06:39 43.64781 7.20397 26 ft 8 kts 44°
2026-05-06 06:39 43.65003 7.20700 29 ft 79 kts 45°
2026-05-06 06:39 43.65548 7.21450 27 ft 141 kts 45°
2026-05-06 06:39 43.66310 7.22547 305 ft 163 kts 46°
2026-05-06 06:40 43.67038 7.23679 1015 ft 157 kts 58°
2026-05-06 06:40 43.67127 7.25114 1578 ft 155 kts 117°
2026-05-06 06:40 43.66439 7.26343 2025 ft 178 kts 136°
2026-05-06 06:40 43.65470 7.27636 2395 ft 207 kts 137°
2026-05-06 06:41 43.64402 7.29079 2993 ft 218 kts 135°
2026-05-06 06:41 43.63333 7.30588 3759 ft 221 kts 136°
2026-05-06 06:41 43.62107 7.31875 4483 ft 224 kts 153°
2026-05-06 06:41 43.60761 7.33106 4822 ft 254 kts 133°
2026-05-06 06:42 43.60006 7.35393 5363 ft 275 kts 96°
2026-05-06 06:42 43.60338 7.37993 6217 ft 282 kts 65°
2026-05-06 06:42 43.61292 7.40396 7049 ft 288 kts 58°
2026-05-06 06:42 43.62338 7.42797 7881 ft 295 kts 59°
2026-05-06 06:43 43.63378 7.45274 8730 ft 301 kts 60°
2026-05-06 06:43 43.64061 7.46957 9296 ft 305 kts 61°
2026-05-06 06:43 43.65089 7.49552 10092 ft 313 kts 62°
2026-05-06 06:43 43.66150 7.52283 10464 ft 335 kts 63°
2026-05-06 06:44 43.67272 7.55202 10961 ft 351 kts 63°
2026-05-06 06:44 43.68423 7.58215 11734 ft 358 kts 63°
2026-05-06 06:44 43.69595 7.61284 12493 ft 365 kts 64°
2026-05-06 06:44 43.70775 7.64385 13320 ft 371 kts 64°
2026-05-06 06:45 43.71965 7.67522 14111 ft 376 kts 64°
2026-05-06 06:45 43.73211 7.70668 14821 ft 382 kts 59°
2026-05-06 06:45 43.74835 7.73623 15539 ft 389 kts 50°
2026-05-06 06:45 43.76608 7.76432 16257 ft 395 kts 49°
2026-05-06 06:46 43.78451 7.79289 16973 ft 400 kts 49°
2026-05-06 06:46 43.80316 7.82187 17676 ft 406 kts 49°
2026-05-06 06:46 43.82202 7.85130 18343 ft 411 kts 49°
2026-05-06 06:46 43.84111 7.88119 18907 ft 417 kts 49°
2026-05-06 06:47 43.86044 7.91154 19470 ft 423 kts 49°
2026-05-06 06:47 43.87970 7.94183 20052 ft 428 kts 49°
2026-05-06 06:47 43.89952 7.97303 20576 ft 433 kts 49°
2026-05-06 06:47 43.91954 8.00458 21206 ft 437 kts 49°
2026-05-06 06:48 43.93945 8.03601 21772 ft 442 kts 49°
2026-05-06 06:48 43.95990 8.06835 22314 ft 448 kts 49°
2026-05-06 06:48 43.98061 8.10112 22843 ft 454 kts 49°
2026-05-06 06:48 44.00159 8.13433 23330 ft 459 kts 49°
2026-05-06 06:49 44.02272 8.16786 23804 ft 463 kts 49°
2026-05-06 06:49 44.04322 8.20245 24259 ft 465 kts 56°
2026-05-06 06:49 44.05999 8.24105 24689 ft 466 kts 66°
2026-05-06 06:49 44.07396 8.28186 25115 ft 469 kts 69°
2026-05-06 06:50 44.08689 8.32369 25556 ft 471 kts 71°
2026-05-06 06:50 44.09920 8.36606 25972 ft 473 kts 72°
2026-05-06 06:50 44.11129 8.40884 26399 ft 476 kts 72°
2026-05-06 06:50 44.12337 8.45187 26824 ft 479 kts 72°
2026-05-06 06:51 44.13557 8.49522 27241 ft 482 kts 72°
2026-05-06 06:51 44.14790 8.53878 27633 ft 485 kts 72°
2026-05-06 06:51 44.16037 8.58263 28030 ft 488 kts 72°
2026-05-06 06:51 44.17294 8.62668 28406 ft 491 kts 72°
2026-05-06 06:52 44.18629 8.67000 28764 ft 496 kts 66°
2026-05-06 06:52 44.20436 8.71131 29116 ft 503 kts 55°
2026-05-06 06:52 44.22775 8.74788 29418 ft 507 kts 42°
2026-05-06 06:52 44.25500 8.77930 29764 ft 509 kts 37°
2026-05-06 06:53 44.28343 8.80902 30098 ft 512 kts 35°
2026-05-06 06:53 44.31260 8.83795 30391 ft 514 kts 34°
2026-05-06 06:53 44.34203 8.86656 30668 ft 516 kts 33°
2026-05-06 06:53 44.37129 8.89494 30982 ft 517 kts 33°
2026-05-06 06:54 44.40083 8.92378 31369 ft 517 kts 34°
2026-05-06 06:54 44.42999 8.95247 31753 ft 517 kts 34°
2026-05-06 06:54 44.45929 8.98151 32131 ft 516 kts 34°
2026-05-06 06:54 44.48861 9.01072 32514 ft 516 kts 34°
2026-05-06 06:55 44.51788 9.03999 32889 ft 517 kts 34°
2026-05-06 06:55 44.54713 9.06929 33249 ft 516 kts 34°
2026-05-06 06:55 44.57637 9.09859 33569 ft 516 kts 33°
2026-05-06 06:55 44.60554 9.12787 33862 ft 516 kts 33°
2026-05-06 06:56 44.63475 9.15721 34168 ft 515 kts 34°
2026-05-06 06:56 44.66379 9.18644 34566 ft 512 kts 34°
2026-05-06 06:56 44.69263 9.21550 34976 ft 509 kts 34°
2026-05-06 06:56 44.72098 9.24410 35399 ft 505 kts 34°
2026-05-06 06:57 44.74952 9.27292 35728 ft 503 kts 34°
2026-05-06 06:57 44.77804 9.30176 36000 ft 503 kts 34°
2026-05-06 06:57 44.80640 9.33046 36281 ft 502 kts 34°
2026-05-06 06:57 44.83468 9.35912 36605 ft 500 kts 34°
2026-05-06 06:58 44.86333 9.38819 36900 ft 498 kts 34°
2026-05-06 06:58 44.89098 9.41628 37166 ft 496 kts 34°
2026-05-06 06:58 44.91899 9.44476 37412 ft 496 kts 34°
2026-05-06 06:58 44.94692 9.47320 37653 ft 494 kts 34°
2026-05-06 06:59 44.97448 9.50129 37851 ft 494 kts 34°
2026-05-06 06:59 45.03037 9.55838 37869 ft 495 kts 34°
2026-05-06 07:00 45.08614 9.61549 37876 ft 494 kts 34°
2026-05-06 07:00 45.14179 9.67261 37884 ft 494 kts 34°
2026-05-06 07:01 45.19666 9.73141 37883 ft 494 kts 40°
2026-05-06 07:01 45.24835 9.79562 37890 ft 494 kts 41°
2026-05-06 07:02 45.29949 9.86118 37899 ft 495 kts 41°
2026-05-06 07:02 45.35038 9.92696 37922 ft 494 kts 41°
2026-05-06 07:03 45.40139 9.99291 37906 ft 496 kts 41°
2026-05-06 07:03 45.45253 10.05910 37911 ft 497 kts 41°
2026-05-06 07:04 45.50330 10.12494 37915 ft 496 kts 41°
2026-05-06 07:04 45.55436 10.19130 37902 ft 495 kts 41°
2026-05-06 07:05 45.60514 10.25750 37915 ft 493 kts 41°
2026-05-06 07:05 45.65587 10.32378 37924 ft 493 kts 41°
2026-05-06 07:06 45.70610 10.38959 37933 ft 493 kts 41°
2026-05-06 07:06 45.75643 10.45571 37937 ft 489 kts 41°
2026-05-06 07:07 45.80657 10.52175 37938 ft 488 kts 41°
2026-05-06 07:07 45.85658 10.58776 37948 ft 489 kts 41°
2026-05-06 07:08 45.90660 10.65391 37946 ft 487 kts 40°
2026-05-06 07:08 45.96251 10.70711 37958 ft 480 kts 24°
2026-05-06 07:09 46.02283 10.74846 37954 ft 480 kts 21°
2026-05-06 07:09 46.08288 10.78689 37962 ft 480 kts 21°
2026-05-06 07:10 46.14379 10.82575 37972 ft 477 kts 21°
2026-05-06 07:10 46.20422 10.86471 37975 ft 476 kts 21°
2026-05-06 07:11 46.26463 10.90396 37979 ft 476 kts 21°
2026-05-06 07:11 46.32506 10.94336 37992 ft 476 kts 21°
2026-05-06 07:12 46.38544 10.98281 37985 ft 476 kts 21°
2026-05-06 07:12 46.44599 11.02247 37957 ft 476 kts 21°
2026-05-06 07:13 46.50602 11.06190 37946 ft 473 kts 22°
2026-05-06 07:13 46.56596 11.10135 37946 ft 472 kts 22°
2026-05-06 07:14 46.62542 11.14059 37930 ft 473 kts 21°
2026-05-06 07:14 46.68532 11.18021 37937 ft 472 kts 22°
2026-05-06 07:15 46.74513 11.21988 37933 ft 472 kts 22°
2026-05-06 07:15 46.80505 11.25971 37926 ft 472 kts 22°
2026-05-06 07:16 46.86485 11.29953 37912 ft 472 kts 23°
2026-05-06 07:16 46.92433 11.33925 37909 ft 474 kts 23°
2026-05-06 07:17 46.98569 11.37030 37893 ft 469 kts
2026-05-06 07:17 47.04994 11.37656 37890 ft 466 kts 357°
2026-05-06 07:18 47.11490 11.37650 37835 ft 467 kts 355°
2026-05-06 07:18 47.17988 11.37520 37825 ft 467 kts 355°
2026-05-06 07:19 47.24424 11.37415 37851 ft 468 kts 355°
2026-05-06 07:19 47.30954 11.37340 37834 ft 471 kts 355°
2026-05-06 07:20 47.37435 11.37282 37822 ft 470 kts 356°
2026-05-06 07:20 47.43995 11.37225 37829 ft 471 kts 356°
2026-05-06 07:21 47.50559 11.37159 37820 ft 470 kts 356°
2026-05-06 07:21 47.57062 11.37093 37818 ft 471 kts 355°
2026-05-06 07:22 47.63628 11.37026 37820 ft 472 kts 356°
2026-05-06 07:22 47.70190 11.36960 37818 ft 472 kts 356°
2026-05-06 07:23 47.76747 11.36896 37824 ft 471 kts 356°
2026-05-06 07:23 47.83302 11.36831 37824 ft 471 kts 356°
2026-05-06 07:24 47.89860 11.36853 37832 ft 472 kts 357°
2026-05-06 07:24 47.96439 11.37011 37828 ft 472 kts 357°
2026-05-06 07:25 48.03014 11.37184 37830 ft 473 kts 357°
2026-05-06 07:25 48.09587 11.37342 37836 ft 472 kts 357°
2026-05-06 07:26 48.16129 11.37491 37829 ft 472 kts 357°
2026-05-06 07:26 48.22712 11.37638 37829 ft 472 kts 357°
2026-05-06 07:27 48.29286 11.37785 37829 ft 472 kts 357°
2026-05-06 07:27 48.35864 11.37933 37824 ft 472 kts 357°
2026-05-06 07:28 48.42443 11.38082 37823 ft 472 kts 357°
2026-05-06 07:28 48.52259 11.38305 37838 ft 472 kts 357°
2026-05-06 07:29 48.58829 11.38456 37827 ft 470 kts 357°
2026-05-06 07:29 48.65381 11.38606 37827 ft 470 kts 357°
2026-05-06 07:30 48.70813 11.38730 37828 ft 470 kts 357°
2026-05-06 07:30 48.78418 11.38904 37828 ft 468 kts 357°
2026-05-06 07:31 48.83869 11.39031 37833 ft 466 kts 357°
2026-05-06 07:31 48.90302 11.39179 37824 ft 465 kts 357°
2026-05-06 07:32 48.96782 11.39329 37840 ft 465 kts 357°
2026-05-06 07:32 49.03255 11.39476 37822 ft 464 kts 357°
2026-05-06 07:33 49.09712 11.39628 37821 ft 463 kts 357°
2026-05-06 07:33 49.16157 11.39779 37830 ft 463 kts 357°
2026-05-06 07:34 49.22539 11.39928 37818 ft 464 kts 357°
2026-05-06 07:34 49.29009 11.40079 37810 ft 465 kts 357°
2026-05-06 07:35 49.35475 11.40231 37827 ft 465 kts 357°
2026-05-06 07:35 49.41946 11.40384 37813 ft 465 kts 357°
2026-05-06 07:36 49.48430 11.40536 37813 ft 466 kts 357°
2026-05-06 07:36 49.54923 11.40690 37809 ft 467 kts 357°
2026-05-06 07:37 49.61410 11.40681 37803 ft 466 kts 355°
2026-05-06 07:37 49.67850 11.40515 37802 ft 465 kts 355°
2026-05-06 07:38 49.74321 11.40339 37800 ft 464 kts 355°
2026-05-06 07:38 49.80793 11.40183 37799 ft 464 kts 355°
2026-05-06 07:39 49.87257 11.40039 37825 ft 464 kts 356°
2026-05-06 07:39 49.93680 11.39898 37795 ft 463 kts 356°
2026-05-06 07:40 50.00131 11.39756 37787 ft 463 kts 355°
2026-05-06 07:40 50.06574 11.39612 37792 ft 463 kts 356°
2026-05-06 07:41 50.12989 11.39468 37788 ft 463 kts 356°
2026-05-06 07:41 50.19444 11.39323 37784 ft 463 kts 356°
2026-05-06 07:42 50.25892 11.39178 37785 ft 463 kts 356°
2026-05-06 07:42 50.32351 11.39032 37787 ft 463 kts 356°
2026-05-06 07:43 50.38750 11.38887 37780 ft 463 kts 356°
2026-05-06 07:43 50.45207 11.38741 37777 ft 463 kts 356°
2026-05-06 07:44 50.51648 11.38595 37765 ft 463 kts 356°
2026-05-06 07:44 50.58090 11.38449 37764 ft 463 kts 356°
2026-05-06 07:45 50.64497 11.38302 37758 ft 463 kts 356°
2026-05-06 07:45 50.70937 11.38154 37757 ft 463 kts 356°
2026-05-06 07:46 50.77376 11.38006 37756 ft 463 kts 356°
2026-05-06 07:46 50.83814 11.37858 37748 ft 463 kts 356°
2026-05-06 07:47 50.90261 11.37709 37749 ft 463 kts 356°
2026-05-06 07:47 50.96660 11.37560 37759 ft 463 kts 356°
2026-05-06 07:48 51.03094 11.37411 37754 ft 463 kts 356°
2026-05-06 07:48 51.09551 11.37260 37749 ft 464 kts 356°
2026-05-06 07:49 51.16020 11.37109 37747 ft 465 kts 356°
2026-05-06 07:49 51.22476 11.36958 37749 ft 465 kts 356°
2026-05-06 07:50 51.28907 11.36807 37754 ft 465 kts 356°
2026-05-06 07:50 51.35389 11.36654 37754 ft 466 kts 356°
2026-05-06 07:51 51.41866 11.36501 37755 ft 466 kts 356°
2026-05-06 07:51 51.48358 11.36347 37757 ft 466 kts 356°
2026-05-06 07:52 51.54834 11.36193 37761 ft 464 kts 356°
2026-05-06 07:52 51.61287 11.36040 37768 ft 463 kts 356°
2026-05-06 07:53 51.67738 11.35886 37768 ft 463 kts 356°
2026-05-06 07:53 51.74138 11.35732 37780 ft 463 kts 357°
2026-05-06 07:54 51.80584 11.35577 37774 ft 461 kts 357°
2026-05-06 07:54 51.86997 11.35423 37773 ft 461 kts 357°
2026-05-06 07:55 51.93406 11.35268 37778 ft 461 kts 357°
2026-05-06 07:55 51.99822 11.35113 37767 ft 461 kts 357°
2026-05-06 07:56 52.06227 11.35221 37772 ft 461 kts
2026-05-06 07:56 52.12619 11.36284 37772 ft 461 kts
2026-05-06 07:57 52.18954 11.37527 37774 ft 462 kts
2026-05-06 07:57 52.25340 11.38820 37778 ft 462 kts
2026-05-06 07:58 52.31723 11.40104 37776 ft 462 kts
2026-05-06 07:58 52.38118 11.41382 37776 ft 462 kts
2026-05-06 07:59 52.44469 11.42651 37785 ft 462 kts
2026-05-06 07:59 52.50822 11.43923 37788 ft 462 kts
2026-05-06 08:00 52.57161 11.45197 37793 ft 462 kts
2026-05-06 08:00 52.63542 11.46484 37799 ft 462 kts
2026-05-06 08:01 52.69930 11.47777 37808 ft 462 kts
2026-05-06 08:01 52.76317 11.49072 37799 ft 461 kts
2026-05-06 08:02 52.82687 11.50369 37802 ft 461 kts
2026-05-06 08:02 52.89064 11.51670 37805 ft 461 kts
2026-05-06 08:03 52.95439 11.52975 37805 ft 461 kts
2026-05-06 08:03 53.01769 11.54275 37810 ft 461 kts
2026-05-06 08:04 53.08137 11.55586 37811 ft 461 kts
2026-05-06 08:04 53.14513 11.56902 37812 ft 461 kts
2026-05-06 08:05 53.20885 11.58222 37819 ft 461 kts
2026-05-06 08:05 53.27190 11.60223 37812 ft 462 kts 14°
2026-05-06 08:06 53.33384 11.63127 37827 ft 463 kts 16°
2026-05-06 08:06 53.39553 11.66207 37832 ft 463 kts 16°
2026-05-06 08:07 53.45724 11.69318 37826 ft 463 kts 16°
2026-05-06 08:07 53.51860 11.72403 37837 ft 463 kts 16°
2026-05-06 08:08 53.58040 11.75507 37829 ft 463 kts 16°
2026-05-06 08:08 53.64217 11.78616 37845 ft 463 kts 16°
2026-05-06 08:09 53.70390 11.81732 37853 ft 464 kts 16°
2026-05-06 08:09 53.76579 11.84867 37856 ft 464 kts 16°
2026-05-06 08:10 53.82776 11.88015 37852 ft 464 kts 16°
2026-05-06 08:10 53.88969 11.91173 37867 ft 464 kts 16°
2026-05-06 08:11 53.95131 11.94323 37868 ft 465 kts 16°
2026-05-06 08:11 54.01327 11.97501 37862 ft 465 kts 16°
2026-05-06 08:12 54.07530 12.00691 37872 ft 465 kts 16°
2026-05-06 08:12 54.13668 12.03859 37715 ft 457 kts 16°
2026-05-06 08:13 54.16660 12.05408 37250 ft 455 kts 16°
2026-05-06 08:13 54.19694 12.06979 36659 ft 455 kts 17°
2026-05-06 08:13 54.22725 12.08550 36111 ft 454 kts 17°
2026-05-06 08:13 54.25746 12.10119 35587 ft 453 kts 17°
2026-05-06 08:14 54.28771 12.11693 35063 ft 453 kts 18°
2026-05-06 08:14 54.31744 12.13242 34554 ft 452 kts 18°
2026-05-06 08:14 54.34748 12.14809 34050 ft 451 kts 19°
2026-05-06 08:14 54.37750 12.16379 33482 ft 450 kts 19°
2026-05-06 08:15 54.40743 12.17948 32858 ft 450 kts 18°
2026-05-06 08:15 54.43744 12.19524 32137 ft 452 kts 18°
2026-05-06 08:15 54.46766 12.21112 31529 ft 452 kts 18°
2026-05-06 08:15 54.49779 12.22697 30937 ft 452 kts 18°
2026-05-06 08:16 54.52779 12.24278 30344 ft 451 kts 17°
2026-05-06 08:16 54.55782 12.25862 29780 ft 449 kts 17°
2026-05-06 08:16 54.58722 12.27413 29220 ft 446 kts 17°
2026-05-06 08:16 54.61793 12.28363 28652 ft 442 kts
2026-05-06 08:17 54.64811 12.28734 28184 ft 438 kts
2026-05-06 08:17 54.67856 12.29066 27572 ft 437 kts
2026-05-06 08:17 54.70881 12.29351 27092 ft 433 kts
2026-05-06 08:17 54.73874 12.29616 26601 ft 430 kts
2026-05-06 08:18 54.76852 12.29872 26136 ft 426 kts
2026-05-06 08:18 54.79811 12.30123 25658 ft 423 kts
2026-05-06 08:18 54.82739 12.30370 25198 ft 420 kts
2026-05-06 08:18 54.85648 12.30614 24745 ft 417 kts
2026-05-06 08:19 54.87562 12.30775 24455 ft 414 kts
2026-05-06 08:19 54.91361 12.31093 23869 ft 411 kts
2026-05-06 08:19 54.94188 12.31703 23415 ft 411 kts 14°
2026-05-06 08:19 54.96785 12.33757 22928 ft 410 kts 30°
2026-05-06 08:20 54.98403 12.35584 22605 ft 408 kts 33°
2026-05-06 08:20 55.00713 12.38359 22130 ft 405 kts 33°
2026-05-06 08:20 55.02991 12.41096 21675 ft 401 kts 33°
2026-05-06 08:20 55.05287 12.43830 21204 ft 397 kts 33°
2026-05-06 08:21 55.08305 12.47396 20598 ft 392 kts 33°
2026-05-06 08:21 55.09824 12.49185 20235 ft 388 kts 33°
2026-05-06 08:21 55.12024 12.51773 19559 ft 383 kts 33°
2026-05-06 08:21 55.14219 12.54355 18924 ft 378 kts 32°
2026-05-06 08:22 55.16368 12.56883 18184 ft 376 kts 32°
2026-05-06 08:22 55.18522 12.59419 17461 ft 371 kts 32°
2026-05-06 08:22 55.20620 12.61894 17153 ft 355 kts 32°
2026-05-06 08:22 55.22626 12.64250 16833 ft 340 kts 31°
2026-05-06 08:23 55.24640 12.66347 16248 ft 335 kts 27°
2026-05-06 08:23 55.26671 12.68320 15631 ft 332 kts 27°
2026-05-06 08:23 55.28685 12.70255 15057 ft 328 kts 27°
2026-05-06 08:23 55.30682 12.72176 14489 ft 325 kts 27°
2026-05-06 08:24 55.32694 12.73941 13876 ft 322 kts 17°
2026-05-06 08:24 55.34877 12.74409 13254 ft 312 kts 349°
2026-05-06 08:24 55.36822 12.73051 12630 ft 302 kts 320°
2026-05-06 08:24 55.38294 12.70468 11990 ft 298 kts 308°
2026-05-06 08:25 55.39584 12.67630 11398 ft 295 kts 307°
2026-05-06 08:25 55.40830 12.64800 11061 ft 288 kts 307°
2026-05-06 08:25 55.41906 12.61870 10960 ft 287 kts 293°
2026-05-06 08:25 55.42310 12.58477 10524 ft 284 kts 266°
2026-05-06 08:26 55.41734 12.55189 9861 ft 285 kts 238°
2026-05-06 08:26 55.40430 12.52604 9102 ft 288 kts 223°
2026-05-06 08:26 55.38958 12.50211 8427 ft 288 kts 223°
2026-05-06 08:26 55.37498 12.47796 7734 ft 289 kts 223°
2026-05-06 08:27 55.36040 12.45355 7066 ft 290 kts 223°
2026-05-06 08:27 55.34579 12.42884 6395 ft 291 kts 223°
2026-05-06 08:27 55.33196 12.40246 5672 ft 295 kts 236°
2026-05-06 08:27 55.32367 12.37013 5282 ft 291 kts 257°
2026-05-06 08:28 55.32299 12.33539 4988 ft 281 kts 283°
2026-05-06 08:28 55.33071 12.30488 4738 ft 269 kts 310°
2026-05-06 08:28 55.34449 12.28468 4585 ft 251 kts 336°
2026-05-06 08:28 55.36071 12.27740 4456 ft 234 kts
2026-05-06 08:29 55.37611 12.28255 4360 ft 219 kts 22°
2026-05-06 08:29 55.38953 12.29415 4145 ft 211 kts 36°
2026-05-06 08:29 55.40104 12.30988 3961 ft 207 kts 42°
2026-05-06 08:29 55.41161 12.32611 3720 ft 205 kts 43°
2026-05-06 08:30 55.42233 12.34265 3465 ft 204 kts 43°
2026-05-06 08:30 55.43308 12.35911 3202 ft 204 kts 43°
2026-05-06 08:30 55.44379 12.37539 3023 ft 201 kts 43°
2026-05-06 08:30 55.45429 12.39136 3004 ft 202 kts 42°
2026-05-06 08:31 55.46493 12.40759 3001 ft 202 kts 43°
2026-05-06 08:31 55.47557 12.42390 3006 ft 203 kts 42°
2026-05-06 08:31 55.48611 12.44014 2882 ft 203 kts 42°
2026-05-06 08:31 55.49661 12.45633 2639 ft 196 kts 43°
2026-05-06 08:32 55.50662 12.47171 2321 ft 190 kts 43°
2026-05-06 08:32 55.51629 12.48658 2054 ft 183 kts 42°
2026-05-06 08:32 55.52571 12.50107 1794 ft 176 kts 43°
2026-05-06 08:32 55.53465 12.51484 1565 ft 164 kts 43°
2026-05-06 08:33 55.54287 12.52749 1342 ft 149 kts 43°
2026-05-06 08:33 55.55023 12.53884 1208 ft 131 kts 42°
2026-05-06 08:33 55.55675 12.54891 1039 ft 122 kts 43°
2026-05-06 08:33 55.56317 12.55882 822 ft 123 kts 42°
2026-05-06 08:34 55.56948 12.56873 638 ft 123 kts 40°
2026-05-06 08:34 55.58238 12.58862 299 ft 121 kts 39°
2026-05-06 08:34 55.58874 12.59813 155 ft 120 kts 38°
2026-05-06 08:35 55.59497 12.60777 39 ft 118 kts 39°
2026-05-06 08:35 55.60029 12.61596 28 ft 77 kts 42°
2026-05-06 08:35 55.60345 12.62082 28 ft 54 kts 41°
2026-05-06 08:35 55.60615 12.62337 29 ft 40 kts 13°
2026-05-06 08:36 55.60814 12.62436 27 ft 29 kts 34°
2026-05-06 08:36 55.60967 12.62666 27 ft 30 kts 41°
2026-05-06 08:36 55.61125 12.62909 27 ft 30 kts 40°
2026-05-06 08:36 55.61286 12.63159 27 ft 31 kts 41°
2026-05-06 08:37 55.61453 12.63416 27 ft 32 kts 40°
2026-05-06 08:37 55.61622 12.63682 27 ft 33 kts 42°
2026-05-06 08:37 55.61796 12.63952 27 ft 34 kts 41°
2026-05-06 08:37 55.61994 12.64174 27 ft 34 kts 25°
2026-05-06 08:38 55.62192 12.64338 25 ft 23 kts 25°
2026-05-06 08:38 55.62338 12.64425 26 ft 20 kts 11°
2026-05-06 08:38 55.62466 12.64483 27 ft 17 kts 10°
2026-05-06 08:38 55.62537 12.64372 27 ft 13 kts 301°
2026-05-06 08:39 55.62590 12.64257 27 ft 11 kts 341°
2026-05-06 08:39 55.62646 12.64297 27 ft 8 kts 29°
2026-05-06 08:39 55.62682 12.64332 27 ft 5 kts 50°
2026-05-06 08:39 55.62682 12.64371 27 ft 2 kts 101°
2026-05-06 08:40 55.62678 12.64400 27 ft 4 kts 103°
2026-05-06 08:40 55.62674 12.64434 27 ft 2 kts 103°
2026-05-06 08:40 55.62673 12.64441 27 ft 0 kts 103°